Taunton, MA

12:01 PM EST on December 15, 2017 (GMT -0500)
Taunton Municipal

Weather History for KTAN - September, 2012

Change the Weather History Date:

Saturday, September 15, 2012

  Actual Average Record
Temperature  
Mean Temperature 60 °F -  
Max Temperature 75 °F 72 °F 84 °F (1993)
Min Temperature 46 °F 49 °F 29 °F (1975)
Degree Days  
Heating Degree Days 4    
Growing Degree Days 10 (Base 50)    
Moisture  
Dew Point 55 °F    
Average Humidity 85    
Maximum Humidity 97    
Minimum Humidity 43    
Precipitation  
Precipitation 0.00 in - - ()
Sea Level Pressure  
Sea Level Pressure 30.04 in    
Wind  
Wind Speed 2 mph (NW)    
Max Wind Speed 13 mph    
Max Gust Speed 17 mph    
Visibility 7 miles    
Events Fog    
Averages and records for this station are not official NWS values.
T = Trace of Precipitation, MM = Missing Value Source: NWS Daily Summary

Daily Weather History Graph

Daily Weather History Graph

Search for Another Location

Airport or City:

Trip Planner

Search our weather history database for the weather conditions in past years. The results will help you decide how hot, cold, wet, or windy it might be!

Date:

Astronomy

Sep. 15, 2012 Rise Set
Actual Time 6:24 AM EDT 6:52 PM EDT
Civil Twilight 5:56 AM EDT 7:20 PM EDT
Nautical Twilight 5:23 AM EDT 7:53 PM EDT
Astronomical Twilight 4:49 AM EDT 8:27 PM EDT
Moon 5:52 AM EDT 6:20 PM EDT
Length of Visible Light 13h 23m
Length of Day
12h 28m
Waning Crescent, 0% of the Moon is Illuminated
Sep 15
Waning Crescent
Sep 15
New
Sep 22
First Quarter
Sep 29
Full
Oct 8
Last Quarter

Hourly Weather History & Observations

Time (EDT) Temp. Dew Point Humidity Pressure Visibility Wind Dir Wind Speed Gust Speed Precip Events Conditions
12:52 AM 62.1 °F 60.1 °F 93% 30.09 in 10.0 mi SSE 3.5 mph - N/A   Partly Cloudy
1:52 AM 60.1 °F 59.0 °F 96% 30.07 in 10.0 mi Calm Calm - N/A   Scattered Clouds
2:04 AM 59.0 °F 57.0 °F 93% 30.07 in 2.0 mi Calm Calm - N/A   Mostly Cloudy
2:07 AM 59.0 °F 57.0 °F 93% 30.07 in 1.2 mi Calm Calm - N/A   Mostly Cloudy
2:15 AM 60.1 °F 57.9 °F 93% 30.07 in 2.0 mi Calm Calm - N/A   Mostly Cloudy
2:23 AM 59.0 °F 57.9 °F 96% 30.06 in 4.0 mi Calm Calm - N/A   Mostly Cloudy
2:30 AM 60.1 °F 57.9 °F 93% 30.06 in 1.5 mi Calm Calm - N/A   Scattered Clouds
2:32 AM 59.0 °F 57.0 °F 93% 30.06 in 1.0 mi Calm Calm - N/A   Mist
2:35 AM 57.9 °F 57.0 °F 97% 30.06 in 0.8 mi Calm Calm - N/A   Mist
2:40 AM 57.9 °F 57.0 °F 97% 30.06 in 0.5 mi Calm Calm - N/A Fog Fog
2:57 AM 59.0 °F 57.0 °F 93% 30.05 in 1.0 mi Calm Calm - N/A   Mostly Cloudy
3:05 AM 60.1 °F 57.0 °F 90% 30.04 in 2.5 mi Calm Calm - N/A   Mostly Cloudy
3:11 AM 60.1 °F 57.9 °F 93% 30.04 in 10.0 mi SE 4.6 mph - N/A   Scattered Clouds
3:52 AM 61.0 °F 59.0 °F 93% 30.03 in 10.0 mi Calm Calm - N/A   Clear
4:17 AM 57.9 °F 57.0 °F 97% 30.03 in 1.8 mi Calm Calm - N/A   Clear
4:20 AM 59.0 °F 57.0 °F 93% 30.03 in 3.0 mi Calm Calm - N/A   Clear
4:36 AM 57.0 °F 55.9 °F 96% 30.03 in 1.5 mi Calm Calm - N/A   Clear
4:43 AM 57.0 °F 55.0 °F 93% 30.03 in 1.0 mi Calm Calm - N/A   Clear
4:49 AM 57.2 °F 55.4 °F 94% 30.03 in 2.0 mi Calm Calm - N/A   Scattered Clouds
4:52 AM 57.0 °F 55.9 °F 96% 30.04 in 4.0 mi Calm Calm - N/A   Scattered Clouds
5:52 AM 59.0 °F 57.9 °F 96% 30.03 in 10.0 mi Calm Calm - N/A   Clear
6:52 AM 57.9 °F 57.0 °F 97% 30.03 in 6.0 mi Calm Calm - N/A   Clear
7:09 AM 59.0 °F 57.0 °F 93% 30.02 in 6.0 mi Calm Calm - N/A   Partly Cloudy
7:52 AM 66.0 °F 63.0 °F 90% 30.02 in 10.0 mi North - - N/A   Clear
8:52 AM 64.9 °F 62.1 °F 90% 30.04 in 10.0 mi Variable 5.8 mph - N/A   Overcast
9:20 AM 64.9 °F 61.0 °F 87% 30.04 in 10.0 mi North - - 0.00 in   Mostly Cloudy
9:29 AM 64.9 °F 61.0 °F 87% 30.04 in 10.0 mi NW 5.8 mph - 0.00 in   Overcast
9:38 AM 64.9 °F 61.0 °F 87% 30.04 in 10.0 mi West 6.9 mph - 0.00 in   Overcast
10:08 AM 64.0 °F 57.0 °F 78% 30.04 in 10.0 mi NW 9.2 mph - N/A   Overcast
10:52 AM 64.0 °F 55.0 °F 73% 30.04 in 10.0 mi WNW 5.8 mph - N/A   Overcast
11:52 AM 66.9 °F 53.1 °F 61% 30.02 in 10.0 mi NNW 9.2 mph - N/A   Mostly Cloudy
12:52 PM 71.1 °F 53.1 °F 53% 30.01 in 10.0 mi Variable 6.9 mph - N/A   Clear
1:52 PM 73.0 °F 50.0 °F 44% 29.98 in 10.0 mi North 10.4 mph - N/A   Clear
2:52 PM 73.9 °F 51.1 °F 45% 29.98 in 10.0 mi North 12.7 mph 17.3 mph N/A   Mostly Cloudy
3:52 PM 72.0 °F 48.0 °F 43% 29.97 in 10.0 mi WNW 6.9 mph - N/A   Clear
4:52 PM 72.0 °F 48.0 °F 43% 29.98 in 10.0 mi NW 9.2 mph - N/A   Clear
5:52 PM 69.1 °F 48.0 °F 47% 29.99 in 10.0 mi WNW 5.8 mph - N/A   Partly Cloudy
6:52 PM 59.0 °F 52.0 °F 78% 30.01 in 10.0 mi Calm Calm - N/A   Partly Cloudy
7:52 PM 54.0 °F 51.1 °F 90% 30.03 in 10.0 mi Calm Calm - N/A   Partly Cloudy
8:52 PM 53.1 °F 51.1 °F 93% 30.04 in 10.0 mi NNW 3.5 mph - N/A   Clear
9:52 PM 50.0 °F 48.0 °F 93% 30.05 in 10.0 mi Calm Calm - N/A   Partly Cloudy
10:52 PM 48.9 °F 46.0 °F 90% 30.06 in 9.0 mi Calm Calm - N/A   Clear
11:17 PM 48.0 °F 46.0 °F 93% 30.05 in 1.8 mi Calm Calm - N/A   Clear
11:32 PM 48.0 °F 46.0 °F 93% 30.05 in 4.0 mi Calm Calm - N/A   Clear
11:52 PM 46.9 °F 45.0 °F 93% 30.05 in 10.0 mi Calm Calm - N/A   Clear